User: anonymous   Login
Location: Bishop's University Astronomical Observatory
(45.3661°N, 71.8475°W)
Time: 08:19:57
(UTC-05:00)
Language:

Meteor 2-5 Rocket - Orbit

View from above orbital plane
View from above orbital plane
View from above satellite
View from above satellite

Ground track
Ground track

The orbit data is extracted from the following two-line orbital elements,

1 11608U 79095B   17326.77756716  .00000099  00000-0  51750-4 0  9991
2 11608  81.2159  57.1182 0055112  77.2252 283.5068 14.06122120952363
Epoch (UTC): 22 November 2017 18:39:41
Eccentricity: 0.0055112
inclination: 81.2159°
perigee height: 833 km
apogee height: 912 km
right ascension of ascending node: 57.1182°
argument of perigee: 77.2252°
revolutions per day: 14.06122120
mean anomaly at epoch: 283.5068°
orbit number at epoch: 95236

The dashed part of the orbit path shows where the satellite is in the earth's shadow,  

DLR